| time (UTC) | temp F | wind direction | speed MPH | gust MPH | rain 1hr in | rain 24hr in | rain mn in | humidity % | barometer mb |
| 20260906145551 | 82 | 171 | 0.0 | 3.0 | 0.00 | 0.00 | 0.00 | 80 | 1011.7 |
| 20260906144544 | 82 | 274 | 0.0 | 3.0 | 0.00 | 0.00 | 0.00 | 81 | 1011.5 |
| 20260906143601 | 82 | 220 | 1.0 | 5.0 | 0.00 | 0.00 | 0.00 | 81 | 1011.7 |
| 20260906141427 | 82 | 218 | 1.0 | 4.0 | 0.00 | 0.00 | 0.00 | 80 | 1011.5 |
| 20260906135312 | 82 | 127 | 2.0 | 7.0 | 0.00 | 0.00 | 0.00 | 79 | 1011.3 |
| 20260906134253 | 82 | 139 | 2.0 | 11.0 | 0.00 | 0.00 | 0.00 | 81 | 1011.2 |
| 20260906133218 | 81 | 189 | 3.0 | 11.0 | 0.00 | 0.00 | 0.00 | 82 | 1011.1 |
| 20260906132222 | 80 | 188 | 2.0 | 6.0 | 0.00 | 0.00 | 0.00 | 83 | 1011.1 |
| 20260906131218 | 79 | 173 | 2.0 | 6.0 | 0.00 | 0.00 | 0.00 | 84 | 1011.1 |
| 20260906130151 | 78 | 120 | 1.0 | 6.0 | 0.00 | 0.00 | 0.00 | 85 | 1010.7 |
| 20260906125208 | 78 | 121 | 0.0 | 2.0 | 0.00 | 0.00 | 0.00 | 85 | 1010.5 |
| 20260906124219 | 78 | 121 | 0.0 | 3.0 | 0.00 | 0.00 | 0.00 | 86 | 1010.3 |
| 20260906123205 | 78 | 119 | 0.0 | 3.0 | 0.00 | 0.00 | 0.00 | 86 | 1010.4 |
| 20260906122227 | 78 | 114 | 0.0 | 2.0 | 0.00 | 0.00 | 0.00 | 85 | 1010.2 |
| 20260906120114 | 78 | 114 | 0.0 | 2.0 | 0.00 | 0.00 | 0.00 | 84 | 1010.0 |
| 20260906115055 | 78 | 153 | 0.0 | 1.0 | 0.00 | 0.00 | 0.00 | 84 | 1009.9 |
| 20260906114028 | 78 | 221 | 0.0 | 0.0 | 0.00 | 0.00 | 0.00 | 83 | 1009.8 |
| 20260906113038 | 78 | 221 | 0.0 | 0.0 | 0.00 | 0.00 | 0.00 | 83 | 1009.5 |
| 20260906112036 | 78 | 221 | 0.0 | 0.0 | 0.00 | 0.00 | 0.00 | 82 | 1009.3 |
| 20260906111006 | 78 | 221 | 0.0 | 0.0 | 0.00 | 0.00 | 0.00 | 82 | 1009.1 |
| 20260906105956 | 79 | 221 | 0.0 | 0.0 | 0.00 | 0.00 | 0.00 | 82 | 1009.1 |
| 20260906104933 | 79 | 221 | 0.0 | 0.0 | 0.00 | 0.00 | 0.00 | 82 | 1009.0 |
| 20260906103924 | 79 | 221 | 0.0 | 0.0 | 0.00 | 0.00 | 0.00 | 82 | 1008.8 |
| 20260906102924 | 79 | 221 | 0.0 | 0.0 | 0.00 | 0.00 | 0.00 | 82 | 1008.8 |
| 20260906101853 | 79 | 221 | 0.0 | 0.0 | 0.00 | 0.00 | 0.00 | 82 | 1008.8 |
| 20260906100907 | 79 | 202 | 0.0 | 1.0 | 0.00 | 0.00 | 0.00 | 82 | 1008.8 |
| 20260906095834 | 79 | 220 | 0.0 | 1.0 | 0.00 | 0.00 | 0.00 | 82 | 1009.0 |
| 20260906094830 | 79 | 221 | 0.0 | 2.0 | 0.00 | 0.00 | 0.00 | 82 | 1009.0 |
| 20260906093841 | 79 | 277 | 0.0 | 0.0 | 0.00 | 0.00 | 0.00 | 81 | 1009.0 |
| 20260906092840 | 79 | 165 | 0.0 | 1.0 | 0.00 | 0.00 | 0.00 | 81 | 1009.1 |
| 20260906091811 | 79 | 252 | 0.0 | 2.0 | 0.00 | 0.00 | 0.00 | 81 | 1009.1 |
| 20260906090820 | 80 | 227 | 0.0 | 3.0 | 0.00 | 0.00 | 0.00 | 81 | 1009.1 |
| 20260906084646 | 80 | 200 | 1.0 | 7.0 | 0.00 | 0.00 | 0.00 | 80 | 1009.0 |
| 20260906083620 | 80 | 206 | 1.0 | 7.0 | 0.00 | 0.00 | 0.00 | 79 | 1009.0 |
| 20260906082609 | 80 | 182 | 1.0 | 5.0 | 0.00 | 0.00 | 0.00 | 79 | 1009.0 |
| 20260906080456 | 81 | 207 | 2.0 | 11.0 | 0.00 | 0.00 | 0.00 | 78 | 1009.2 |
| 20260906075454 | 81 | 172 | 2.0 | 11.0 | 0.00 | 0.00 | 0.00 | 77 | 1009.3 |
| 20260906073336 | 81 | 199 | 3.0 | 9.0 | 0.00 | 0.00 | 0.00 | 76 | 1009.7 |
| 20260906072337 | 82 | 196 | 2.0 | 9.0 | 0.00 | 0.00 | 0.00 | 76 | 1009.7 |
| 20260906071335 | 82 | 203 | 1.0 | 5.0 | 0.00 | 0.00 | 0.00 | 75 | 1009.7 |
| 20260906070331 | 82 | 180 | 2.0 | 7.0 | 0.00 | 0.00 | 0.00 | 75 | 1009.9 |
| 20260906065347 | 82 | 164 | 3.0 | 8.0 | 0.00 | 0.00 | 0.00 | 75 | 1010.0 |
| 20260906064350 | 82 | 162 | 2.0 | 9.0 | 0.00 | 0.00 | 0.00 | 74 | 1010.1 |
| 20260906063335 | 83 | 163 | 3.0 | 9.0 | 0.00 | 0.00 | 0.00 | 74 | 1010.1 |
| 20260906062345 | 83 | 198 | 3.0 | 8.0 | 0.00 | 0.00 | 0.00 | 74 | 1010.2 |
| 20260906061405 | 83 | 197 | 3.0 | 8.0 | 0.00 | 0.00 | 0.00 | 73 | 1010.2 |
| 20260906055255 | 83 | 229 | 4.0 | 8.0 | 0.00 | 0.00 | 0.00 | 73 | 1010.3 |
| 20260906054235 | 84 | 176 | 2.0 | 8.0 | 0.00 | 0.00 | 0.00 | 72 | 1010.2 |
| 20260906052103 | 84 | 181 | 4.0 | 13.0 | 0.00 | 0.00 | 0.00 | 71 | 1010.1 |
| 20260906045859 | 85 | 159 | 5.0 | 12.0 | 0.00 | 0.00 | 0.00 | 69 | 1010.2 |
| 20260906044919 | 85 | 190 | 4.0 | 10.0 | 0.00 | 0.00 | 0.00 | 68 | 1010.3 |
| 20260906042749 | 85 | 200 | 4.0 | 11.0 | 0.00 | 0.00 | 0.00 | 67 | 1010.4 |
| 20260906041742 | 85 | 176 | 3.0 | 8.0 | 0.00 | 0.00 | 0.00 | 67 | 1010.4 |
| 20260906040750 | 86 | 171 | 2.0 | 8.0 | 0.00 | 0.00 | 0.00 | 67 | 1010.4 |
| 20260906034641 | 86 | 231 | 5.0 | 10.0 | 0.00 | 0.00 | 0.00 | 66 | 1010.3 |
| 20260906033659 | 87 | 177 | 3.0 | 11.0 | 0.00 | 0.00 | 0.00 | 65 | 1010.2 |
| 20260906032645 | 87 | 123 | 4.0 | 11.0 | 0.00 | 0.00 | 0.00 | 64 | 1010.2 |
| 20260906031647 | 87 | 140 | 5.0 | 11.0 | 0.00 | 0.00 | 0.00 | 62 | 1010.0 |
| 20260906030619 | 88 | 157 | 5.0 | 11.0 | 0.00 | 0.00 | 0.00 | 61 | 1009.7 |
| 20260906025544 | 89 | 163 | 4.0 | 11.0 | 0.00 | 0.00 | 0.00 | 58 | 1009.5 |
| 20260906024553 | 89 | 90 | 3.0 | 11.0 | 0.00 | 0.00 | 0.00 | 58 | 1009.3 |
| 20260906023549 | 89 | 132 | 3.0 | 7.0 | 0.00 | 0.00 | 0.00 | 57 | 1009.1 |
| 20260906022543 | 89 | 109 | 3.0 | 10.0 | 0.00 | 0.00 | 0.00 | 56 | 1008.7 |
| 20260906021514 | 90 | 134 | 2.0 | 7.0 | 0.00 | 0.00 | 0.00 | 55 | 1008.6 |
| 20260906015359 | 91 | 148 | 3.0 | 10.0 | 0.00 | 0.00 | 0.00 | 53 | 1008.3 |
| 20260906014420 | 91 | 148 | 2.0 | 8.0 | 0.00 | 0.00 | 0.00 | 52 | 1008.3 |
| 20260906013433 | 92 | 102 | 3.0 | 8.0 | 0.00 | 0.00 | 0.00 | 51 | 1008.2 |
| 20260906012445 | 92 | 117 | 3.0 | 9.0 | 0.00 | 0.00 | 0.00 | 49 | 1008.2 |
| 20260906011430 | 93 | 144 | 3.0 | 11.0 | 0.00 | 0.00 | 0.00 | 49 | 1008.1 |
| 20260906010424 | 94 | 109 | 3.0 | 11.0 | 0.00 | 0.00 | 0.00 | 47 | 1008.0 |
| 20260906005406 | 94 | 55 | 2.0 | 9.0 | 0.00 | 0.00 | 0.00 | 46 | 1008.0 |
| 20260906004341 | 95 | 194 | 3.0 | 8.0 | 0.00 | 0.00 | 0.00 | 42 | 1007.8 |
| 20260906003331 | 96 | 123 | 2.0 | 6.0 | 0.00 | 0.00 | 0.00 | 40 | 1007.8 |
| 20260906002311 | 96 | 159 | 2.0 | 6.0 | 0.00 | 0.00 | 0.00 | 40 | 1007.6 |
| 20260906001242 | 96 | 159 | 2.0 | 5.0 | 0.00 | 0.00 | 0.00 | 39 | 1007.6 |
| 20260906000256 | 96 | 83 | 3.0 | 7.0 | 0.00 | 0.00 | 0.00 | 39 | 1007.6 |
| 20260905234117 | 98 | 161 | 2.0 | 7.0 | 0.00 | 0.00 | 0.00 | 39 | 1007.6 |
| 20260905233129 | 98 | 149 | 3.0 | 7.0 | 0.00 | 0.00 | 0.00 | 38 | 1007.6 |
| 20260905230935 | 99 | 93 | 2.0 | 8.0 | 0.00 | 0.00 | 0.00 | 37 | 1007.7 |
| 20260905225932 | 100 | 109 | 1.0 | 6.0 | 0.00 | 0.00 | 0.00 | 37 | 1007.7 |
| 20260905224941 | 99 | 67 | 2.0 | 8.0 | 0.00 | 0.00 | 0.00 | 37 | 1007.6 |
| 20260905223909 | 99 | 100 | 3.0 | 9.0 | 0.00 | 0.00 | 0.00 | 37 | 1007.6 |
| 20260905222836 | 99 | 81 | 2.0 | 9.0 | 0.00 | 0.00 | 0.00 | 37 | 1007.7 |
| 20260905221828 | 99 | 92 | 3.0 | 9.0 | 0.00 | 0.00 | 0.00 | 38 | 1007.8 |
| 20260905220755 | 99 | 77 | 3.0 | 9.0 | 0.00 | 0.00 | 0.00 | 37 | 1007.9 |
| 20260905215815 | 100 | 108 | 2.0 | 9.0 | 0.00 | 0.00 | 0.00 | 37 | 1007.9 |
| 20260905214807 | 99 | 194 | 1.0 | 9.0 | 0.00 | 0.00 | 0.00 | 39 | 1007.9 |
| 20260905213752 | 99 | 158 | 3.0 | 8.0 | 0.00 | 0.00 | 0.00 | 38 | 1008.0 |
| 20260905212749 | 100 | 80 | 2.0 | 6.0 | 0.00 | 0.00 | 0.00 | 37 | 1007.9 |
| 20260905211808 | 101 | 200 | 2.0 | 6.0 | 0.00 | 0.00 | 0.00 | 37 | 1007.9 |
| 20260905210750 | 100 | 197 | 3.0 | 11.0 | 0.00 | 0.00 | 0.00 | 35 | 1008.0 |
| 20260905205719 | 101 | 138 | 4.0 | 11.0 | 0.00 | 0.00 | 0.00 | 36 | 1008.2 |
| 20260905204721 | 101 | 150 | 2.0 | 7.0 | 0.00 | 0.00 | 0.00 | 37 | 1008.4 |
| 20260905202619 | 100 | 168 | 3.0 | 10.0 | 0.00 | 0.00 | 0.00 | 39 | 1008.8 |
| 20260905201637 | 99 | 223 | 1.0 | 6.0 | 0.00 | 0.00 | 0.00 | 40 | 1009.0 |
| 20260905195457 | 99 | 217 | 3.0 | 8.0 | 0.00 | 0.00 | 0.00 | 40 | 1009.4 |
| 20260905194456 | 98 | 138 | 3.0 | 10.0 | 0.00 | 0.00 | 0.00 | 39 | 1009.6 |
| 20260905193458 | 98 | 143 | 2.0 | 10.0 | 0.00 | 0.00 | 0.00 | 39 | 1009.7 |
| 20260905192501 | 97 | 253 | 2.0 | 7.0 | 0.00 | 0.00 | 0.00 | 43 | 1009.9 |
| 20260905190314 | 97 | 174 | 3.0 | 9.0 | 0.00 | 0.00 | 0.00 | 42 | 1010.1 |
| 20260905185253 | 96 | 99 | 3.0 | 12.0 | 0.00 | 0.00 | 0.00 | 44 | 1010.3 |
| 20260905184224 | 96 | 181 | 3.0 | 12.0 | 0.00 | 0.00 | 0.00 | 44 | 1010.5 |
| 20260905183222 | 96 | 205 | 3.0 | 10.0 | 0.00 | 0.00 | 0.00 | 43 | 1010.8 |
| 20260905182203 | 95 | 286 | 3.0 | 9.0 | 0.00 | 0.00 | 0.00 | 45 | 1010.9 |
| 20260905181138 | 95 | 167 | 2.0 | 13.0 | 0.00 | 0.00 | 0.00 | 47 | 1011.2 |
| 20260905180143 | 95 | 198 | 4.0 | 13.0 | 0.00 | 0.00 | 0.00 | 46 | 1011.3 |
| 20260905175201 | 95 | 202 | 3.0 | 12.0 | 0.00 | 0.00 | 0.00 | 48 | 1011.5 |
| 20260905173106 | 93 | 134 | 2.0 | 11.0 | 0.00 | 0.00 | 0.00 | 52 | 1011.7 |
| 20260905172055 | 93 | 211 | 3.0 | 9.0 | 0.00 | 0.00 | 0.00 | 53 | 1011.9 |
| 20260905171100 | 93 | 159 | 3.0 | 9.0 | 0.00 | 0.00 | 0.00 | 50 | 1011.9 |
| 20260905170033 | 93 | 97 | 3.0 | 11.0 | 0.00 | 0.00 | 0.00 | 52 | 1012.0 |
| 20260905163916 | 91 | 221 | 2.0 | 10.0 | 0.00 | 0.00 | 0.00 | 55 | 1012.1 |
| 20260905162906 | 90 | 212 | 3.0 | 8.0 | 0.00 | 0.00 | 0.00 | 59 | 1012.2 |
| 20260905161858 | 90 | 153 | 1.0 | 6.0 | 0.00 | 0.00 | 0.00 | 58 | 1012.2 |
| 20260905160913 | 89 | 205 | 1.0 | 7.0 | 0.00 | 0.00 | 0.00 | 64 | 1012.2 |
| 20260905155915 | 88 | 250 | 1.0 | 7.0 | 0.00 | 0.00 | 0.00 | 65 | 1012.2 |
| 20260905154842 | 88 | 239 | 1.0 | 5.0 | 0.00 | 0.00 | 0.00 | 66 | 1012.2 |
| 20260905153853 | 87 | 244 | 1.0 | 5.0 | 0.00 | 0.00 | 0.00 | 69 | 1012.2 |
| 20260905152846 | 86 | 163 | 2.0 | 10.0 | 0.00 | 0.00 | 0.00 | 70 | 1012.1 |
| 20260905151840 | 86 | 205 | 3.0 | 10.0 | 0.00 | 0.00 | 0.00 | 71 | 1012.1 |
| 20260905150815 | 86 | 186 | 2.0 | 7.0 | 0.00 | 0.00 | 0.00 | 74 | 1012.2 |